Location: Drocourt
(49.0571°N, 1.7669°E)
Time: 23:33:12
(UTC+00:00)

Okean-O - Pass Details

Date: 09 February 2023
Orbit: 637 x 638 km, 98.1° (Epoch: 01 April)

Event Time Altitude Azimuth Distance (km) Brightness Sun altitude
Exits shadow 20:06:13 31° 328° (NNW) 1,129 4.2 -30.3°
Drops below altitude 10° 20:08:38 10° 340° (NNW) 2,042 5.6 -30.7°
Sets 20:10:53 0° 344° (NNW) 2,957 6.4 -31.1°
